Overview Statistics Trail Chart Weather Telemetry Raw packets
 

This is the latest recevied weather packets stored in our database for station/object I0UVN-10. If no packets are shown the sender has not sent any weather packets the latest 10 day(s).

<< 20 21 22 23 24 25 26 >>
Time Temp. Humidity Pressure Rain* Wind** Luminosity Snow
1788062443 28.33° C 52% 1017.9 hPa - - - -
1788061243 28.33° C 54% 1017.9 hPa - - - -
1788060043 27.78° C 54% 1018.2 hPa - - - -
1788058842 28.33° C 53% 1018.1 hPa - - - -
1788057642 28.33° C 53% 1018.2 hPa - - - -
1788056442 28.33° C 53% 1018.1 hPa - - - -
1788055237 28.33° C 53% 1018.5 hPa - - - -
1788054037 28.33° C 54% 1018.7 hPa - - - -
1788052837 28.33° C 54% 1019 hPa - - - -
1788051636 28.33° C 55% 1019.2 hPa - - - -
1788050436 28.33° C 54% 1019.6 hPa - - - -
1788049246 28.33° C 53% 1019.9 hPa - - - -
1788048036 28.33° C 56% 1020.2 hPa - - - -
1788046836 28.33° C 57% 1020.4 hPa - - - -
1788045636 28.33° C 57% 1020.3 hPa - - - -
1788044436 28.33° C 58% 1020.4 hPa - - - -
1788043235 28.33° C 60% 1020.4 hPa - - - -
1788042035 28.89° C 60% 1020.6 hPa - - - -
1788040835 28.33° C 60% 1020.6 hPa - - - -
1788039634 28.33° C 60% 1020.6 hPa - - - -
1788038434 28.89° C 60% 1020.7 hPa - - - -
1788037234 28.89° C 59% 1020.6 hPa - - - -
1788036030 28.89° C 58% 1020.6 hPa - - - -
1788034830 29.44° C 65% 1020.5 hPa - - - -
1788033630 29.44° C 62% 1020.6 hPa - - - -

* Rain since midnight (hover to see other rain measurements)
** Current wind speed in m/s (hover to see current wind gust speed)